Location: Unspecified
(54.1780°N, 0.0000°E)
Time: 21:04:57
(UTC+00:00)

S-56A Canister/Altair - Pass Details

Date: 05 October 2020
Orbit: 632 x 2500 km, 38.9° (Epoch: 20 October)

Event Time Altitude Azimuth Distance (km) Brightness Sun altitude
Rises 17:36:47 0° 273° (W) 6,181 14.7 -2.5°
Reaches altitude 10° 17:41:40 10° 263° (W) 5,147 13.8 -3.2°
Maximum altitude 17:52:59 28° 214° (SSW) 3,556 11.4 -4.8°
Drops below altitude 10° 18:02:31 10° 161° (SSE) 4,276 11.1 -6.2°
Sets 18:06:09 0° 151° (SSE) 5,001 11.4 -6.8°
